Location: Poughquag
(41.6090°N, 73.6820°W)
Time: 18:10:40
(UTC-04:00)

MOZHAYETS 4 - Pass Details

Date: 22 August 2024
Orbit: 650 x 668 km, 98.3° (Epoch: 15 September)

Event Time Altitude Azimuth Distance (km) Brightness Sun altitude
Exits shadow 04:39:40 - 174° (S) 2,660 10.5 -16.4°
Reaches altitude 10° 04:41:05 10° 177° (S) 2,089 10.0 -16.1°
Maximum altitude 04:45:36 64° 258° (WSW) 744 7.7 -15.4°
Drops below altitude 10° 04:50:10 10° 340° (NNW) 2,103 10.4 -14.7°
Sets 04:52:26 0° 344° (NNW) 3,019 11.3 -14.3°
